Location: Chapel Hill
(35.9134°N, 79.0560°W)
Time: 21:31:00
(UTC-05:00)

Vanguard 2 Rocket - All Passes

Search period start: 05 November 2024 00:00
Search period end: 15 November 2024 00:00
Orbit: 553 x 3297 km, 32.9° (Epoch: 05 November)

Date Brightness Start Highest point End Pass type
(mag) Time Alt. Az. Time Alt. Az. Time Alt. Az.
05 Nov - 06:04:47 10° S 06:15:08 19° SE 06:26:50 10° E visible
05 Nov - 08:13:05 10° SW 08:30:14 49° SSE 08:48:15 10° E daylight
05 Nov - 10:27:38 10° WSW 10:47:46 75° SSE 11:04:27 10° E daylight
05 Nov - 12:45:45 10° W 13:05:38 79° S 13:18:38 10° ESE daylight
05 Nov - 15:05:15 10° W 15:21:12 52° SSW 15:30:42 10° SE daylight
05 Nov - 17:27:06 10° W 17:33:22 16° SW 17:38:14 10° SSW daylight
06 Nov - 07:09:50 10° SSW 07:24:46 38° SE 07:41:57 10° E daylight
06 Nov - 09:22:23 10° WSW 09:41:26 68° SSE 09:59:36 10° E daylight
06 Nov - 11:39:11 10° W 11:59:39 81° S 12:14:45 10° E daylight
06 Nov - 13:58:12 10° W 14:16:35 66° SSW 14:27:54 10° ESE daylight
06 Nov - 16:18:32 10° W 16:30:11 29° SW 16:37:53 10° SSE daylight
07 Nov - 06:07:44 10° S 06:19:51 26° SE 06:34:26 10° E visible
07 Nov - 08:17:57 10° SW 08:35:18 58° SSE 08:54:10 10° E daylight
07 Nov - 10:33:08 10° WSW 10:53:17 79° S 11:10:20 10° E daylight
07 Nov - 12:51:20 10° W 13:11:14 75° SSW 13:24:32 10° ESE daylight
07 Nov - 15:10:58 10° W 15:26:25 43° SW 15:36:05 10° SSE daylight
08 Nov - 05:07:38 10° SSE 05:15:30 16° SE 05:24:39 10° E visible
08 Nov - 07:14:20 10° SSW 07:29:37 46° SE 07:48:02 10° E daylight
08 Nov - 09:27:45 10° WSW 09:46:47 74° SSE 10:05:25 10° E daylight
08 Nov - 11:44:48 10° W 12:05:16 80° S 12:20:38 10° ESE daylight
08 Nov - 14:03:46 10° W 14:21:56 57° SSW 14:33:30 10° SE daylight
08 Nov - 16:25:06 10° W 16:35:04 21° SW 16:42:14 10° S daylight
09 Nov - 06:11:40 10° SSW 06:24:33 34° SE 06:41:02 10° E visible
09 Nov - 08:23:08 10° SW 08:40:28 66° SSE 08:59:55 10° E daylight
09 Nov - 10:38:45 10° W 10:58:50 81° S 11:16:11 10° E daylight
09 Nov - 12:56:54 10° W 13:16:43 69° SSW 13:30:16 10° ESE daylight
09 Nov - 15:16:51 10° W 15:31:24 35° SW 15:41:06 10° SSE daylight
10 Nov - 05:10:14 10° S 05:20:08 23° SE 05:32:43 10° E visible
10 Nov - 07:19:15 10° SW 07:34:34 55° SSE 07:53:51 10° E daylight
10 Nov - 09:33:18 10° WSW 09:52:13 79° S 10:11:11 10° E daylight
10 Nov - 11:50:24 10° W 12:10:48 77° SSW 12:26:26 10° ESE daylight
10 Nov - 14:09:24 10° W 14:27:04 49° SW 14:38:50 10° SE daylight
10 Nov - 16:32:46 10° W 16:39:48 15° SW 16:45:29 10° SSW daylight
11 Nov - 04:11:58 10° SE 04:16:15 12° SE 04:21:02 10° ESE visible
11 Nov - 06:16:11 10° SSW 06:29:19 43° SE 06:47:05 10° E visible
11 Nov - 08:28:32 10° WSW 08:45:44 73° SSE 09:05:37 10° E daylight
11 Nov - 10:44:24 10° W 11:04:22 81° S 11:21:59 10° E daylight
11 Nov - 13:02:28 10° W 13:21:59 61° SSW 13:35:48 10° SE daylight
11 Nov - 15:23:06 10° W 15:36:12 27° SW 15:45:33 10° S daylight
12 Nov - 05:14:04 10° S 05:24:46 30° SE 05:39:28 10° E visible
12 Nov - 07:24:29 10° SW 07:39:39 64° SSE 07:59:30 10° E daylight
12 Nov - 09:38:57 10° W 09:57:42 81° S 10:16:55 10° E daylight
12 Nov - 11:56:00 10° W 12:16:11 71° SSW 12:32:04 10° ESE daylight
12 Nov - 14:15:10 10° W 14:31:59 40° SW 14:43:48 10° SSE daylight
13 Nov - 04:13:25 10° SSE 04:20:51 18° SE 04:30:23 10° E visible
13 Nov - 06:21:08 10° SW 06:34:13 52° SSE 06:52:50 10° E visible
13 Nov - 08:34:08 10° WSW 08:51:07 78° S 09:11:15 10° E daylight
13 Nov - 10:50:04 10° W 11:09:50 78° S 11:27:40 10° ESE daylight
13 Nov - 13:08:04 10° W 13:27:03 53° SSW 13:41:02 10° SE daylight
13 Nov - 15:30:05 10° W 15:40:50 20° SW 15:49:14 10° S daylight
14 Nov - 05:18:34 10° SSW 05:29:31 38° SE 05:45:34 10° E visible
14 Nov - 07:29:56 10° WSW 07:44:54 71° SSE 08:05:05 10° E daylight
14 Nov - 09:44:40 10° W 10:03:11 81° S 10:22:35 10° E daylight
14 Nov - 12:01:36 10° W 12:21:24 64° SSW 12:37:29 10° SE daylight
14 Nov - 14:21:14 10° W 14:36:42 32° SW 14:48:16 10° SSE daylight
